📊 Raw Sensor Data

Showing records 36776 to 36800 of 84,902 total

ID Distance (ft) Battery V Battery A Int Temp (°F) Int Humid (%) Ext Temp (°F) Solar V RSSI SNR Time Stamp
48139 15.3 3.95 0 72 44 76 5.10 -71 8 08/03/2025 09:15 AM
48138 15.3 3.94 5 71 44 74 5.10 -70 7 08/03/2025 09:00 AM
48137 15.3 3.94 5 70 44 74 5.10 -69 7 08/03/2025 08:45 AM
48136 15.3 3.94 0 69 44 73 5.10 -71 7 08/03/2025 08:30 AM
48135 15.2 3.94 0 68 43 74 5.10 -69 8 08/03/2025 08:15 AM
48134 15.2 4.04 5 66 43 72 5.10 -69 7 08/03/2025 08:00 AM
48133 15.2 4.04 26 64 42 71 4.50 -70 8 08/03/2025 07:45 AM
48132 15.2 3.95 14 62 42 71 4.50 -70 8 08/03/2025 07:30 AM
48131 15.2 3.98 9 60 42 68 4.50 -68 7 08/03/2025 07:15 AM
48130 15.1 3.96 0 57 43 67 4.50 -69 8 08/03/2025 07:00 AM
48129 15.1 3.88 0 55 43 63 4.50 -69 8 08/03/2025 06:45 AM
48128 15.0 3.93 0 54 43 58 4.50 -69 8 08/03/2025 06:30 AM
48127 15.0 3.85 -18 53 44 55 4.20 -69 8 08/03/2025 06:15 AM
48126 15.1 3.86 -5 52 44 54 1.10 -69 8 08/03/2025 06:00 AM
48125 15.0 3.86 -35 53 44 54 0.00 -69 8 08/03/2025 05:45 AM
48124 15.0 3.87 -5 53 44 54 0.00 -69 8 08/03/2025 05:30 AM
48123 15.0 3.93 -5 53 44 55 0.00 -69 9 08/03/2025 05:15 AM
48122 15.1 3.87 -5 53 44 55 0.00 -69 8 08/03/2025 05:00 AM
48121 15.1 3.86 -5 54 44 54 0.00 -69 8 08/03/2025 04:45 AM
48120 15.1 3.94 -5 55 44 56 0.00 -68 8 08/03/2025 04:30 AM
48119 15.1 3.86 -5 55 44 56 0.00 -70 8 08/03/2025 04:15 AM
48118 15.1 3.83 -5 56 44 57 0.10 -68 7 08/03/2025 04:00 AM
48117 15.1 3.93 -5 56 44 57 0.00 -68 7 08/03/2025 03:45 AM
48116 15.1 3.86 -5 56 44 57 0.00 -69 8 08/03/2025 03:30 AM
48115 15.1 3.87 -5 56 44 57 0.00 -69 8 08/03/2025 03:15 AM